Watford City, ND

10:01 PM CST on December 04, 2016 (GMT -0600)
Watford City

Weather History for KS25 - September, 2012

Change the Weather History Date:

Sunday, September 16, 2012

  Actual Average (KISN) Record (KISN)
Temperature  
Mean Temperature 52 °F 56 °F  
Max Temperature 59 °F 71 °F 96 °F (1998)
Min Temperature 44 °F 42 °F 23 °F (1973)
Degree Days  
Heating Degree Days 14 9  
Month to date heating degree days 102  
Since 1 July heating degree days 173  
Cooling Degree Days 0 1  
Month to date cooling degree days 23  
Year to date cooling degree days 452  
Growing Degree Days 2 (Base 50)    
Moisture  
Dew Point 36 °F    
Average Humidity 51    
Maximum Humidity 71    
Minimum Humidity 42    
Precipitation  
Precipitation 0.00 in 0.03 in 0.44 in (1934)
Month to date precipitation 0.58  
Year to date precipitation 11.70  
Sea Level Pressure  
Sea Level Pressure 30.13 in    
Wind  
Wind Speed 5 mph (North)    
Max Wind Speed 12 mph    
Max Gust Speed -    
Visibility 10 miles    
Events Rain    
T = Trace of Precipitation, MM = Missing Value Source: NWS Daily Summary

Daily Weather History Graph

Daily Weather History Graph

Search for Another Location

Airport or City:

Trip Planner

Search our weather history database for the weather conditions in past years. The results will help you decide how hot, cold, wet, or windy it might be!

Date:

Astronomy

Sep. 16, 2012 Rise Set
Actual Time 7:32 AM CDT 8:02 PM CDT
Civil Twilight 7:01 AM CDT 8:33 PM CDT
Nautical Twilight 6:24 AM CDT 9:09 PM CDT
Astronomical Twilight 5:46 AM CDT 9:47 PM CDT
Moon 8:21 AM CDT (9/16) 7:58 PM CDT (9/16)
Length of Visible Light 13h 31m
Length of Day
12h 29m
New Moon, 0% of the Moon is Illuminated
Sep 16
New Moon
Sep 22
First Quarter
Sep 29
Full
Oct 8
Last Quarter
Oct 15
New

Hourly Weather History & Observations

Time (CDT) Temp. Windchill Dew Point Humidity Pressure Visibility Wind Dir Wind Speed Gust Speed Precip Events Conditions
12:15 AM 59.0 °F - 35.6 °F 42% 30.03 in 10.0 mi Calm Calm - N/A   Clear
12:35 AM 57.2 °F - 35.6 °F 44% 30.03 in 9.0 mi Calm Calm - N/A   Clear
12:55 AM 55.4 °F - 35.6 °F 47% 30.04 in 9.0 mi Calm Calm - N/A   Clear
1:15 AM 55.4 °F - 35.6 °F 47% 30.03 in 10.0 mi North 3.5 mph - N/A   Clear
1:35 AM 55.4 °F - 37.4 °F 51% 30.06 in 10.0 mi Calm Calm - N/A   Clear
1:55 AM 57.2 °F - 37.4 °F 48% 30.04 in 8.0 mi NE 8.1 mph - N/A   Scattered Clouds
2:15 AM 57.2 °F - 35.6 °F 44% 30.05 in 10.0 mi ENE 5.8 mph - N/A   Partly Cloudy
2:35 AM 55.4 °F - 35.6 °F 47% 30.05 in 10.0 mi NNE 9.2 mph - N/A   Clear
2:55 AM 55.4 °F - 35.6 °F 47% 30.06 in 10.0 mi NNE 8.1 mph - N/A   Clear
3:15 AM 55.4 °F - 35.6 °F 47% 30.07 in 10.0 mi NNE 8.1 mph - N/A   Clear
3:35 AM 55.4 °F - 33.8 °F 44% 30.08 in 10.0 mi North 6.9 mph - N/A   Clear
3:55 AM 53.6 °F - 33.8 °F 47% 30.11 in 10.0 mi North 9.2 mph - N/A   Clear
4:15 AM 53.6 °F - 32.0 °F 44% 30.11 in 10.0 mi NNE 4.6 mph - N/A   Clear
4:35 AM 53.6 °F - 32.0 °F 44% 30.09 in 10.0 mi ENE 5.8 mph - N/A   Clear
4:55 AM 53.6 °F - 32.0 °F 44% 30.08 in 10.0 mi ENE 5.8 mph - N/A   Clear
5:15 AM 53.6 °F - 32.0 °F 44% 30.08 in 10.0 mi ESE 5.8 mph - N/A   Clear
5:35 AM 53.6 °F - 32.0 °F 44% 30.07 in 6.0 mi ESE 9.2 mph - N/A   Haze
5:55 AM 53.6 °F - 33.8 °F 47% 30.07 in 1.5 mi East 9.2 mph - N/A   Haze
6:15 AM 53.6 °F - 33.8 °F 47% 30.07 in 5.0 mi ENE 3.5 mph - N/A   Haze
6:35 AM 51.8 °F - 33.8 °F 50% 30.09 in 10.0 mi North 3.5 mph - N/A   Scattered Clouds
7:15 AM 50.0 °F - 35.6 °F 58% 30.11 in 10.0 mi North 6.9 mph - N/A   Partly Cloudy
7:55 AM 50.0 °F - 35.6 °F 58% 30.11 in 10.0 mi NE 6.9 mph - N/A   Mostly Cloudy
8:15 AM 51.8 °F - 35.6 °F 54% 30.11 in 10.0 mi NNE 5.8 mph - N/A   Mostly Cloudy
8:35 AM 53.6 °F - 35.6 °F 51% 30.11 in 10.0 mi NNE 5.8 mph - N/A   Mostly Cloudy
8:55 AM 51.8 °F - 35.6 °F 54% 30.12 in 10.0 mi NNE 3.5 mph - N/A   Scattered Clouds
9:15 AM 53.6 °F - 35.6 °F 51% 30.13 in 10.0 mi NE 4.6 mph - N/A   Scattered Clouds
9:35 AM 55.4 °F - 37.4 °F 51% 30.14 in 10.0 mi NE 5.8 mph - N/A   Partly Cloudy
9:55 AM 55.4 °F - 37.4 °F 51% 30.14 in 10.0 mi NE 8.1 mph - N/A   Clear
10:15 AM 55.4 °F - 37.4 °F 51% 30.15 in 10.0 mi NNE 9.2 mph - N/A   Clear
10:35 AM 57.2 °F - 37.4 °F 48% 30.15 in 10.0 mi NE 8.1 mph - N/A   Clear
10:55 AM 57.2 °F - 37.4 °F 48% 30.16 in 10.0 mi NNE 9.2 mph - N/A   Clear
11:15 AM 57.2 °F - 37.4 °F 48% 30.16 in 5.0 mi NE 9.2 mph - N/A   Haze
11:35 AM 57.2 °F - 37.4 °F 48% 30.17 in 10.0 mi NE 9.2 mph - N/A   Clear
11:55 AM 57.2 °F - 37.4 °F 48% 30.16 in 10.0 mi NE 10.4 mph - N/A   Partly Cloudy
12:15 PM 59.0 °F - 37.4 °F 45% 30.17 in 10.0 mi NE 9.2 mph - N/A   Partly Cloudy
12:35 PM 59.0 °F - 37.4 °F 45% 30.17 in 10.0 mi ENE 10.4 mph - N/A   Scattered Clouds
12:55 PM 59.0 °F - 37.4 °F 45% 30.17 in 10.0 mi NE 9.2 mph - N/A   Scattered Clouds
1:15 PM 59.0 °F - 37.4 °F 45% 30.18 in 10.0 mi NNE 11.5 mph - N/A   Mostly Cloudy
1:35 PM 59.0 °F - 35.6 °F 42% 30.18 in 10.0 mi NNE 10.4 mph - N/A   Overcast
1:55 PM 59.0 °F - 35.6 °F 42% 30.18 in 10.0 mi NE 11.5 mph - N/A   Mostly Cloudy
2:15 PM 57.2 °F - 37.4 °F 48% 30.19 in 10.0 mi North 11.5 mph - N/A   Overcast
2:35 PM 57.2 °F - 37.4 °F 48% 30.19 in 10.0 mi North 11.5 mph - N/A   Mostly Cloudy
2:55 PM 55.4 °F - 41.0 °F 58% 30.19 in 10.0 mi North 9.2 mph - N/A Rain Light Rain
3:15 PM 55.4 °F - 41.0 °F 58% 30.19 in 10.0 mi North 8.1 mph - N/A Rain Light Rain
3:35 PM 55.4 °F - 41.0 °F 58% 30.18 in 10.0 mi Calm Calm - N/A Rain Light Rain
3:55 PM 55.4 °F - 41.0 °F 58% 30.18 in 10.0 mi Calm Calm - N/A   Mostly Cloudy
4:15 PM 55.4 °F - 41.0 °F 58% 30.18 in 10.0 mi Calm Calm - N/A   Scattered Clouds
4:35 PM 55.4 °F - 37.4 °F 51% 30.17 in 10.0 mi Calm Calm - N/A   Scattered Clouds
4:55 PM 57.2 °F - 37.4 °F 48% 30.17 in 10.0 mi North 4.6 mph - N/A   Mostly Cloudy
5:15 PM 55.4 °F - 37.4 °F 51% 30.17 in 10.0 mi Calm Calm - N/A   Scattered Clouds
5:35 PM 57.2 °F - 37.4 °F 48% 30.17 in 10.0 mi NW 5.8 mph - N/A   Partly Cloudy
5:55 PM 57.2 °F - 37.4 °F 48% 30.16 in 10.0 mi WNW 5.8 mph - N/A   Partly Cloudy
6:15 PM 57.2 °F - 37.4 °F 48% 30.16 in 10.0 mi WNW 6.9 mph - N/A   Partly Cloudy
6:35 PM 57.2 °F - 37.4 °F 48% 30.16 in 10.0 mi WSW 5.8 mph - N/A   Clear
6:55 PM 57.2 °F - 37.4 °F 48% 30.16 in 10.0 mi WNW 8.1 mph - N/A   Partly Cloudy
7:15 PM 57.2 °F - 35.6 °F 44% 30.15 in 10.0 mi West 6.9 mph - N/A   Scattered Clouds
7:35 PM 55.4 °F - 37.4 °F 51% 30.15 in 10.0 mi West 6.9 mph - N/A   Scattered Clouds
7:55 PM 55.4 °F - 37.4 °F 51% 30.15 in 10.0 mi West 4.6 mph - N/A   Partly Cloudy
8:15 PM 51.8 °F - 37.4 °F 58% 30.14 in 10.0 mi West 4.6 mph - N/A   Clear
8:35 PM 50.0 °F - 35.6 °F 58% 30.14 in 10.0 mi WSW 4.6 mph - N/A   Partly Cloudy
8:55 PM 48.2 °F - 35.6 °F 62% 30.14 in 10.0 mi West 6.9 mph - N/A   Partly Cloudy
9:15 PM 48.2 °F - 35.6 °F 62% 30.15 in 10.0 mi WSW 4.6 mph - N/A   Clear
9:35 PM 46.4 °F 43.5 °F 35.6 °F 66% 30.14 in 10.0 mi WSW 5.8 mph - N/A   Clear
9:55 PM 46.4 °F 43.5 °F 35.6 °F 66% 30.14 in 10.0 mi SW 5.8 mph - N/A   Clear
10:15 PM 44.6 °F 41.4 °F 35.6 °F 71% 30.15 in 10.0 mi SW 5.8 mph - N/A   Clear
10:35 PM 44.6 °F 40.7 °F 35.6 °F 71% 30.15 in 10.0 mi SW 6.9 mph - N/A   Clear
10:55 PM 46.4 °F 42.4 °F 35.6 °F 66% 30.16 in 10.0 mi WNW 8.1 mph - N/A   Scattered Clouds
11:15 PM 50.0 °F - 37.4 °F 62% 30.16 in 10.0 mi NW 8.1 mph - N/A   Partly Cloudy
11:35 PM 50.0 °F - 35.6 °F 58% 30.17 in 10.0 mi NNW 8.1 mph - N/A   Scattered Clouds
11:55 PM 48.2 °F - 35.6 °F 62% 30.16 in 10.0 mi Calm Calm - N/A   Mostly Cloudy